Regional Weather Roundup
Issued by NWS

Home | Current Version | Previous Version | Graphics & Text | Print | Product List | Glossary On
Versions: 1 2 3 4 5 6 7 8 9 10 11 12 13 14 15 16 17 18 19 20 21 22 23 24 25 26 27 28 29 30 31 32 33 34 35 36 37 38 39 40 41 42 43 44 45 46 47 48 49 50
000
ASUS45 KCYS 211310
RWRWY

WYOMING REGIONAL WEATHER ROUNDUP
NATIONAL WEATHER SERVICE CHEYENNE WY
700 AM MDT MON JUL 21 2014

NOTE:  "FAIR" INDICATES FEW OR NO CLOUDS BELOW 12,000 FEET
WITH NO SIGNIFICANT WEATHER AND/OR OBSTRUCTIONS TO VISIBILITY.

WYZ001-211400-
YELLOWSTONE NATIONAL PARK

CITY           SKY/WX    TMP DP  RH WIND       PRES   REMARKS
LK YELLOWSTONE   N/A     51  49  92 CALM      30.26R
W YELLOWSTONE  NOT AVBL

$$
WYZ002>013-054>058-071-098>099-211400-
NORTHERN WYOMING

CITY           SKY/WX    TMP DP  RH WIND       PRES   REMARKS
JACKSON        CLOUDY    61  48  63 S7        30.18R
CODY           PTSUNNY   70  46  43 W3        30.02R
GREYBULL       CLOUDY    70  53  54 CALM      29.94R
WORLAND        PTSUNNY   76  43  30 SE7       29.94R
SHERIDAN       CLOUDY    67  51  56 W7        29.91R
BUFFALO        CLOUDY    71  40  32 SW8       29.99R
GILLETTE       MOSUNNY   73  46  38 SW14      29.91R
HULETT         FAIR      72  46  40 MISG      29.90
NEWCASTLE      FAIR      70  43  37 CALM      29.94

$$
WYZ014>020-022>026-101>103-211400-
CENTRAL WYOMING

CITY           SKY/WX    TMP DP  RH WIND       PRES   REMARKS
BIG PINEY      MOCLDY    52  46  80 CALM      30.25R
PINEDALE       PTSUNNY   52  50  93 MISG      30.26S THUNDER
DUBOIS         FAIR      59  41  51 NW9       30.19F
LANDER         PTCLDY    73  41  31 W6        30.08R
RIVERTON       MOSUNNY   71  41  33 W8        30.09R
CASPER         SUNNY     66  44  45 SW17      30.07R
DOUGLAS        MOSUNNY   73  44  35 W12       30.05R

$$
WYZ021-027>030-104>119-211400-
SOUTHERN WYOMING

CITY           SKY/WX    TMP DP  RH WIND       PRES   REMARKS
EVANSTON       CLEAR     55  46  71 S7        30.24R
KEMMERER       MOSUNNY   50  45  81 NW9       30.27R
FORT BRIDGER   FAIR      56  46  67 S5        30.27R
ROCK SPRINGS   CLEAR     57  41  55 CALM      30.23R
DIXON          FAIR      52  47  81 CALM      30.28R
RAWLINS        SUNNY     61  41  47 S3        30.22R
SARATOGA       FAIR      57  43  58 CALM      30.26R
LARAMIE        SUNNY     64  43  46 SW17      30.25R
CHEYENNE       SUNNY     68  44  42 W20       30.16R
TORRINGTON     MOSUNNY   67  52  58 S3        29.99R
PINE BLUFFS    FAIR      63  46  55 CALM      30.09R

$$


USA.gov is the U.S. government's official web portal to all federal, state and local government web resources and services.